Weather in Maslovka

Russia / Republic of Tatarstan     55°26′06″N   50°00′28″E
temp.,
°C
wind,
m/s
gust,
m/s
humid.,
%
clouds,
%
prec.,
mm/h
press.,
hPa
HPBL,
m
25 february, thu
thu2500:00−27nw239655 0.0 103519
03:00−27w119773 0.0 103419
06:00−27ssw229980 0.0 103219
09:00−24s469590 0.0 1030197
12:00−19sse5890100 0.0 1027316
15:00−17sse71194100 0.1 1023453
18:00−17sse61196100 1.2 1021579
21:00−17sse61095100 1.9 1019560
26 february, fri
fri2600:00−18se51095100 0.2 1018395
03:00−18se5994100 0.3 1018406
06:00−18se599599 0.1 1016329
09:00−17se699499 0.2 1016374
12:00−15se6991100 0.1 1015481
15:00−13se61191100 0.1 1014561
18:00−12se71391100 0.1 1010538
21:00−12se91495100 1.0 1005510
27 february, sat
sat2700:00−11se81395100 6.4 999527
03:00−9se5995100 8.9 998293
06:00−7ese3596100 0.4 996133
09:00−5e3397100 0.8 99677
12:00−2ese2298100 1.2 996123
15:00−1ese1299100 2.3 997139
18:00−3ne4598100 1.0 997145
21:00−7ne5895100 1.8 999210
28 february, sun
sun2800:00−10nne589499 0.4 1000234
03:00−11nne5109393 0.6 1002295
06:00−14nne6109391 0.2 1004289
09:00−14nne599292 0.3 1007349
12:00−13n589197 0.1 1009400
15:00−13n589197 0.2 1011426
18:00−17n5109296 0.0 1013255
21:00−19n599476 0.0 1016164
1 march, mon
mon100:00−21n47960 0.0 1018109
03:00−22nnw47960 0.0 1020104
06:00−23nnw46960 0.0 102191
09:00−20nnw36940 0.0 1022160
12:00−17nw34910 0.0 1022238
15:00−15w35937 0.0 1020183
18:00−18sw44960 0.0 101856
21:00−16sw599534 0.0 1016216